Regional Weather Roundup
Issued by NWS Albany, NY

Home | Current Version | Previous Version | Text Only | Print | Product List | Glossary On
Versions: 1 2 3 4 5 6 7 8 9 10 11 12 13 14 15 16 17 18 19 20 21 22 23 24
000
ASUS41 KALY 301110
RWRALY

NEW YORK STATE HOURLY WEATHER ROUNDUP
NATIONAL WEATHER SERVICE ALBANY NY
700 AM EDT THU OCT 30 2014

NOTE: "FAIR" INDICATES FEW OR NO CLOUDS BELOW 12,000 FEET WITH NO
SIGNIFICANT WEATHER AND/OR NO OBSTRUCTIONS TO VISIBILITY.

NYZ032-033-038>043-046>054-057>066-NYZ062>081-301200-
EAST


CITY           SKY/WX    TMP DP  RH WIND       PRES   REMARKS
ALBANY         MOCLDY    48  39  71 W6        29.96R
GLENS FALLS    CLOUDY    47  38  71 SW5       29.92R
POUGHKEEPSIE   MOCLDY    42  41  96 CALM      29.96R FOG
MONTGOMERY     FOG       38  37  97 SW3       29.96R VSB 1/4
WHITE PLAINS   PTCLDY    42  41  96 NW5       29.95R
ISLIP          PTCLDY    45  43  93 CALM      29.95R
NEW YORK CITY  PTCLDY    51  45  79 NW7       29.96R
CENTRAL PARK   CLEAR     49  44  83 CALM      29.99R
$$

NYZ005>009-017-018-044>046-055-056-301200-
CENTRAL


CITY           SKY/WX    TMP DP  RH WIND       PRES   REMARKS
FULTON         CLOUDY    44  41  89 SW6       29.98R
SYRACUSE       LGT RAIN  45  40  82 W9        29.98S
ROME           MOCLDY    41  40  96 W5        29.98R
ELMIRA         PTCLDY    36  34  92 CALM      30.01R
BINGHAMTON     CLOUDY    41  36  82 W7        29.97R
MONTICELLO     CLOUDY    41  39  93 W5        29.97S
$$

NYZ026>034-041>043-301200-
NORTH


CITY           SKY/WX    TMP DP  RH WIND       PRES   REMARKS
WATERTOWN      CLOUDY    45  37  73 NW5       29.98R
FORT DRUM      NOT AVBL
MASSENA        PTCLDY    39  33  79 W8        29.97R WCI  33
SARANAC LAKE   LGT RAIN  38  36  92 CALM      29.88R
PLATTSBURGH    MOCLDY    40  37  89 CALM      29.91R
$$

NYZ001>004-010>016-019>021-301200-
WEST


CITY           SKY/WX    TMP DP  RH WIND       PRES   REMARKS
NIAGARA FALLS  MOCLDY    38  35  89 W7        30.04S WCI  33
BUFFALO        PTCLDY    39  35  86 W5        30.04S
DUNKIRK        CLOUDY    45  37  73 N7        30.05R
JAMESTOWN      CLOUDY    39  36  87 NW5       30.03S
WELLSVILLE     CLOUDY    39  35  86 NW8       30.01R WCI  33
ROCHESTER      PTCLDY    42  37  82 W8        30.02R
PENN YAN       CLOUDY    44  35  70 W6        30.01R
$$

             KEY
       WCI = WIND CHILL INDEX
       VSB = VISIBILITY
       HX  = HEAT INDEX
$$



USA.gov is the U.S. government's official web portal to all federal, state and local government web resources and services.